Location: Lake of the Woods (North-East)
(49.6672°N, 94.8656°W)
Time: 09:10:45
(UTC-05:00)

Daily predictions for brighter satellites

Satellite Brightness Start Highest point End
(mag) Time Altitude Azimuth Time Altitude Azimuth Time Altitude Azimuth
Cosmos 1943 Rocket 3.4 21:54:02 10° NNW 21:58:57 31° NE 22:03:52 10° ESE
Cosmos 1943 4.1 21:54:15 10° SSE 21:59:00 28° ESE 22:03:46 10° NE
Okean 2 4.4 21:54:57 10° SSW 21:59:02 51° WNW 22:03:09 10° N
PSLV R/B 3.4 21:56:34 10° S 21:59:39 71° WSW 22:02:47 10° NNW
Nimbus 7 Rocket 4.4 21:54:31 10° NNE 22:00:32 78° ESE 22:06:27 10° SSW
MetOp-A 4.2 21:57:01 10° SSE 22:02:22 83° ENE 22:07:46 10° NNW
H-2A R/B 3.2 21:58:22 10° ESE 22:02:33 28° ENE 22:06:51 10° N
Aureole 2 Rocket 3.0 21:58:59 10° SSW 22:02:45 66° WNW 22:06:12 10° NNE
UNK 4.3 22:00:20 10° NNE 22:05:39 57° ESE 22:11:12 10° S
Lacrosse 4 Rocket 3.1 22:03:34 10° SE 22:05:49 15° ESE 22:08:06 10° ENE
SeaSat 1 2.9 22:05:18 10° SSE 22:10:10 59° WSW 22:15:04 10° NW
SPOT 1/Viking Rocket 3.6 22:05:59 10° SSE 22:11:07 73° ENE 22:16:17 10° NNW
CZ-4B R/B 3.7 22:09:45 10° NNE 22:14:45 56° ESE 22:19:50 10° S
Cosmos 1238 4.1 22:20:04 10° S 22:23:08 89° E 22:26:11 10° N
Cosmos 1766 4.1 22:19:31 10° N 22:23:16 37° ENE 22:26:30 13° SE
DELTA 2 DEB (DPAF) 4.4 22:22:59 11° SSE 22:27:09 60° ENE 22:31:36 10° N
Cosmos 1758 Rocket 4.2 22:27:03 11° SSE 22:30:51 38° E 22:34:53 10° NNE
CARTOSAT-1 4.2 22:31:25 13° SE 22:34:56 43° ENE 22:39:03 10° N
Cosmos 2369 Rocket 2.4 22:32:44 10° NNW 22:38:25 73° WSW 22:43:27 13° SSE
ARGOS 3.2 22:33:16 10° SSE 22:38:40 84° WSW 22:44:09 10° NNW
ATLAS 3B R/B 3.2 22:33:54 10° S 22:41:08 46° ESE 22:48:12 10° NE
Cosmos 1825 Rocket 3.6 22:43:51 10° S 22:48:19 89° WNW 22:52:46 10° N
CZ-4C R/B 3.4 22:46:15 14° SSE 22:49:49 84° WSW 22:53:52 10° NNW
SL-16 R/B 4.3 22:45:40 10° WSW 22:50:39 31° NW 22:55:41 10° NNE
ISS -2.8 22:48:14 10° SW 22:51:17 37° SSE 22:54:20 10° E
Atlas Centaur 2 4.3 22:47:06 10° SW 22:52:15 19° S 22:55:21 15° SSE
USA 234 3.8 22:48:30 14° SSE 22:53:54 46° SW 23:00:11 10° WNW
SL-8 R/B 3.7 22:49:40 10° W 22:54:30 76° S 22:59:21 10° ESE
NOAA 11 4.4 22:49:51 12° S 22:54:56 69° WSW 23:00:23 10° NNW
SL-27 R/B 4.0 22:54:51 17° ESE 22:55:31 18° E 22:57:54 10° NE
Cosmos 1805 4.2 22:52:30 10° N 22:56:11 36° ENE 22:58:32 19° SE
Cosmos 407 Rocket 3.6 22:51:50 10° S 22:56:59 57° ESE 23:02:06 10° NNE
CZ-4 R/B 4.0 22:52:33 10° NNE 22:57:34 89° W 23:02:36 10° SSW
SL-08 RB Rocket 4.2 22:59:24 13° S 23:03:23 57° W 23:07:52 10° NNW
Cosmos 1953 2.6 23:00:19 10° N 23:04:15 53° ENE 23:06:37 22° SSE
Cosmos 2263 4.5 22:59:03 10° NW 23:04:36 63° WSW 23:08:56 17° S
Lacrosse 5 rocket 3.2 23:04:44 10° WNW 23:08:26 33° NNW 23:12:19 10° NE
Cosmos 2208 Rocket 4.4 23:04:43 10° NNW 23:09:50 54° ENE 23:13:24 19° SE
Landsat 7 4.0 23:06:30 16° S 23:10:17 67° WSW 23:15:03 10° NNW
COSMOS 2406 4.2 23:09:28 19° SSE 23:12:19 29° ESE 23:17:10 10° NE
Spot 4 3.8 23:09:15 20° SSE 23:12:35 79° ENE 23:17:23 10° NNW
Cosmos 1954 Rocket 4.3 23:12:38 17° S 23:16:31 50° ESE 23:21:39 10° NNE
COSMOS 2455 3.3 23:11:37 10° SW 23:17:37 66° NW 23:23:38 10° NNE
USA 238 DEB 4.4 23:13:43 16° S 23:18:34 35° ESE 23:24:50 10° NE
USA 238 4.4 23:13:54 16° S 23:18:41 35° ESE 23:24:55 10° NE
CZ-4B R/B 4.1 23:18:08 10° E 23:19:41 12° ENE 23:21:16 10° NE
Lacrosse 5 3.4 23:19:55 10° WNW 23:24:36 36° N 23:29:17 10° ENE
Terra 2.0 23:22:47 20° S 23:26:05 67° WSW 23:30:51 10° NNW
CZ-4C R/B 4.1 23:26:52 11° ESE 23:27:22 11° ESE 23:28:59 10° E
Cosmos 1544 3.8 23:24:44 10° N 23:28:21 43° ENE 23:29:59 26° SE
Cosmos 1346 Rocket 3.7 23:24:35 10° SSW 23:28:21 47° WNW 23:32:11 10° N
Kosmos-1675 4.4 23:26:30 14° SSW 23:29:26 67° ESE 23:42:58 10° NE
IGS 5A 3.7 23:27:36 22° S 23:30:09 63° WSW 23:34:19 10° NNW
BREEZE-M DEB (TANK) 1.8 23:29:33 10° WSW 23:35:13 - E 23:31:28 47° SSW
Cosmos 2084 3.4 23:28:19 10° NW 23:32:23 70° SW 23:34:32 28° SSE
Cosmos 1707 4.3 23:35:25 19° ESE 23:36:28 21° E 23:39:29 10° NE
H-2A R/B 4.3 23:36:43 10° ENE 23:38:49 14° E 23:39:24 14° E
Geosat 4.1 23:35:45 10° NNE 23:40:49 80° WNW 23:45:51 10° SW
H-2A R/B 2.7 23:38:18 18° SSW 23:41:46 48° W 23:46:41 10° NNW
Cosmos 1842 3.5 23:39:23 20° SSW 23:42:01 66° WNW 23:45:56 10° N
Cosmos 1943 3.9 23:37:08 10° SW 23:42:43 57° NW 23:48:22 10° NNE
Cosmos 2221 3.7 23:38:56 10° N 23:42:50 31° ENE 23:44:51 21° ESE
Cosmos 1943 Rocket 2.5 23:37:36 10° NW 23:43:02 56° WSW 23:46:20 23° S
Lacrosse 4 Rocket 1.6 23:39:57 10° SW 23:44:00 71° NW 23:48:07 10° NNE
Cosmos-2242 3.7 23:41:35 10° NNW 23:45:51 48° W 23:48:32 21° SSW
Cosmos 1570 Rocket 4.1 23:41:35 10° NNW 23:46:58 76° WSW 23:50:00 26° SSE
Cosmos 1758 3.9 23:45:57 10° NNW 23:49:58 52° W 23:52:08 25° SSW
Cosmos 1900 4.5 23:47:20 10° SW 23:52:29 83° NW 23:57:39 10° NE
Cosmos 1850 Rocket 4.2 23:50:15 26° S 23:52:56 52° ESE 23:58:00 10° NNE
Cosmos 1932 4.4 23:47:33 13° SSW 23:53:00 64° ESE 23:59:12 10° NE
